Zurück zum Katalog

STARLINK-11210

AktivKommunikationVLEO
NORAD 60116·PAYLOAD·🇺🇸 United States

Gestartet Jun 24, 2024 von Vandenberg Space Force Base

Loading…

Nächste Überflüge (nächste 24 Stunden)

TLE

AktuellSource: CelesTrak SupGP

Epoche: Sep 14, 2026, 13:56 UTC

1 60116C 24118D   26257.58104167 -.00021086  00000+0 -17375-3 0  2575
2 60116  53.1573  10.2479 0001031  92.5704  96.6921 15.69712809    17

Verfolge STARLINK-11210 in Echtzeit mit AllMySat

Download on the App Store